ONEWEB-0136, 47282

Orbit data source: Space-Track

ONEWEB-0136, 47282 is a payload satellite owned by One Web (UK) in LEO that was launched on Fri, 18 Dec 2020 UTC via a SOYUZ-2-1B launch vehicle from the Vostochny Cosmodrome (VOSTO). Payload-class satellites include a variety of spacecraft equipped with specific instruments for various scientific and technological missions. These include communications satellites like Starlink; space stations such as the ISS; scientific satellites like the Hubble; Earth observation satellites from companies like Planet Labs, Umbra, and HawkEye 360; GPS; miniature CubeSats for education and research; and military/defense satellites.

Loading next visibility...
Identifier
47282, 2020-100AA
Orbit
LEO
Country
Flag of UKUK
Related business
Manufacturer
One Web
Mission
Operational Commercial Communications
Bus & Motor
ARROW, Unknown motor
Mass
148 kg wet, ~140 kg dry
Launch date (UTC)
2020-12-18 (5 years ago)
Launch vehicle
SOYUZ-2-1B
Launch site
Vostochny Cosmodrome (VOSTO)
Object type
Payload
Rocket body
Debris
Shape & HBR
Trap Box + 2 Pan, 6.7 m
Radar Cross Section
3.464 m², Large (>1 m²)

Expand to show TLE details & history
Last TLE update: 12 hours ago

TLE from 12 hours ago
0 ONEWEB-0136
1 47282U 20100AA  26095.46130223 -.00000278  00000-0 -80932-3 0  9993
2 47282  87.9015   5.0911 0002104  74.5423 285.5938 13.12443420255122
Epoch: 2026-04-05T11:04Z
TLE epoch observation values (Epoch: 2026-04-05T11:04:16.512Z)
Latitude
-0.00001°
Longitude
5.25591°
Altitude
1,216.183 km
Speed
7.246 km/s
True Right ascension
00h 20m 21s
True Declination
0° 00' 00"
Sunlit
Object was in daylight at epoch
Visualization orbit readout
Latitude
Unknown
Longitude
Unknown
Altitude
Unknown
Speed
Unknown
Apparent Right ascension
Unknown
Apparent Declination
Unknown
Sunlit
N/A
Visualization observer readout
Local Sidereal Time
04:50:09
Azimuth
Unknown
Elevation
Unknown
Doppler factor
Unknown
Orbital elements
Apogee altitude
1,212.435 km
Perigee altitude
1,209.242 km
Semi-major axis
7,588.975 km
Eccentricity
0.00021
Inclination
87.9015°
RAAN
5.0911°
Arg. of periapsis
74.5423°
True anomaly
285.57058°
Mean anomaly
285.5938°
Eccentric anomaly
285.58219°
Mean motion
3.28298 °/min
Orbital period
109.66 mins
BSTAR
-0.00080932
Loading maneuver chart data...
Computing Atmospheric mass density...
Loading historical data...
Loading historical data...
Loading historical data...
Loading historical data...
Loading historical data...
Loading historical data...
Loading historical data...

Documentation

Showing up to 5 results
|